Arctic Village, AK

5:09 PM AKDT on July 20, 2017 (GMT -0800)
Arctic Village

Weather History for PARC - June, 2013

Change the Weather History Date:

Sunday, June 23, 2013

  Actual Average Record
Temperature  
Mean Temperature 60 °F -  
Max Temperature 71 °F 68 °F 82 °F (1991)
Min Temperature 50 °F 46 °F 39 °F (2005)
Degree Days  
Heating Degree Days 4    
Growing Degree Days 10 (Base 50)    
Moisture  
Dew Point 41 °F    
Average Humidity 49    
Maximum Humidity 87    
Minimum Humidity 23    
Precipitation  
Precipitation 0.00 in - - ()
Sea Level Pressure  
Sea Level Pressure 29.74 in    
Wind  
Wind Speed 3 mph (WNW)    
Max Wind Speed 12 mph    
Max Gust Speed 17 mph    
Visibility 10 miles    
Events      
Averages and records for this station are not official NWS values.
T = Trace of Precipitation, MM = Missing Value Source: NWS Daily Summary

Daily Weather History Graph

Daily Weather History Graph

Search for Another Location

Airport or City:

Trip Planner

Search our weather history database for the weather conditions in past years. The results will help you decide how hot, cold, wet, or windy it might be!

Date:

Astronomy

Dec. 31, 1969 Rise Set
Actual Time Sun does not set Sun does not set
Civil Twilight Sun does not set Sun does not set
Nautical Twilight Sun does not set Sun does not set
Astronomical Twilight Sun does not set Sun does not set
Moon No Moon Rise 3:27 AM AKDT (6/23)
Length of Visible Light 24h 00m
Length of Day
24h 00m
Full, 100% of the Moon is Illuminated
Jun 23
Full
Jun 29
Last Quarter
Jul 7
New
Jul 15
First Quarter
Jul 22
Full

Hourly Weather History & Observations

Time (AKDT) Temp. Dew Point Humidity Pressure Visibility Wind Dir Wind Speed Gust Speed Precip Events Conditions
12:16 AM 59.0 °F 44.6 °F 59% 29.75 in 10.0 mi West 3.5 mph - N/A   Clear
12:36 AM 57.2 °F 44.6 °F 63% 29.75 in 10.0 mi Calm Calm - N/A   Clear
12:56 AM 57.2 °F 44.6 °F 63% 29.75 in 10.0 mi SW 5.8 mph - N/A   Clear
1:16 AM 57.2 °F 44.6 °F 63% 29.75 in 10.0 mi SW 4.6 mph - N/A   Clear
1:36 AM 55.4 °F 44.6 °F 67% 29.76 in 10.0 mi Calm Calm - N/A   Clear
1:56 AM 51.8 °F 42.8 °F 71% 29.76 in 10.0 mi Calm Calm - N/A   Clear
2:16 AM 53.6 °F 44.6 °F 72% 29.76 in 10.0 mi Calm Calm - N/A   Clear
2:36 AM 51.8 °F 46.4 °F 82% 29.76 in 10.0 mi NNW 4.6 mph - N/A   Clear
2:56 AM 53.6 °F 44.6 °F 72% 29.76 in 10.0 mi Calm Calm - N/A   Clear
3:16 AM 50.0 °F 42.8 °F 76% 29.77 in 10.0 mi NW 4.6 mph - N/A   Clear
3:36 AM 50.0 °F 42.8 °F 76% 29.77 in 10.0 mi NNW 5.8 mph - N/A   Clear
3:56 AM 50.0 °F 42.8 °F 76% 29.77 in 10.0 mi Calm Calm - N/A   Clear
4:16 AM 50.0 °F 46.4 °F 87% 29.77 in 10.0 mi ESE 3.5 mph - N/A   Clear
4:36 AM 51.8 °F 46.4 °F 82% 29.77 in 10.0 mi Calm Calm - N/A   Clear
4:56 AM 51.8 °F 44.6 °F 76% 29.77 in 10.0 mi Calm Calm - N/A   Clear
5:16 AM 51.8 °F 44.6 °F 76% 29.77 in 10.0 mi Calm Calm - N/A   Clear
5:36 AM 51.8 °F 44.6 °F 76% 29.78 in 10.0 mi Calm Calm - N/A   Clear
5:56 AM 53.6 °F 46.4 °F 77% 29.78 in 10.0 mi Calm Calm - N/A   Clear
6:16 AM 53.6 °F 44.6 °F 72% 29.77 in 10.0 mi North 4.6 mph - N/A   Clear
6:36 AM 53.6 °F 44.6 °F 72% 29.77 in 10.0 mi NE 5.8 mph - N/A   Clear
6:56 AM 55.4 °F 44.6 °F 67% 29.77 in 10.0 mi ENE 4.6 mph - N/A   Clear
7:16 AM 55.4 °F 44.6 °F 67% 29.78 in 10.0 mi Calm Calm - N/A   Clear
7:36 AM 55.4 °F 46.4 °F 72% 29.78 in 10.0 mi Calm Calm - N/A   Clear
7:56 AM 57.2 °F 46.4 °F 67% 29.77 in 10.0 mi ENE 4.6 mph - N/A   Clear
8:16 AM 57.2 °F 44.6 °F 63% 29.77 in 10.0 mi ENE 3.5 mph - N/A   Clear
8:36 AM 59.0 °F 46.4 °F 63% 29.77 in 10.0 mi Calm Calm - N/A   Clear
8:56 AM 60.8 °F 46.4 °F 59% 29.77 in 10.0 mi NNE 3.5 mph - N/A   Clear
9:16 AM 60.8 °F 46.4 °F 59% 29.76 in 10.0 mi Calm Calm - N/A   Clear
9:36 AM 60.8 °F 46.4 °F 59% 29.76 in 10.0 mi Calm Calm - N/A   Clear
9:56 AM 60.8 °F 42.8 °F 52% 29.76 in 10.0 mi Calm Calm - N/A   Clear
10:16 AM 62.6 °F 44.6 °F 52% 29.75 in 10.0 mi Calm Calm - N/A   Clear
10:36 AM 62.6 °F 42.8 °F 48% 29.75 in 10.0 mi West 5.8 mph - N/A   Clear
10:56 AM 64.4 °F 42.8 °F 45% 29.75 in 10.0 mi SW 4.6 mph - N/A   Clear
11:16 AM 64.4 °F 39.2 °F 40% 29.75 in 10.0 mi West 4.6 mph - N/A   Clear
11:36 AM 64.4 °F 39.2 °F 40% 29.75 in 10.0 mi Calm Calm - N/A   Clear
11:56 AM 64.4 °F 39.2 °F 40% 29.75 in 10.0 mi Calm Calm - N/A   Clear
12:16 PM 66.2 °F 41.0 °F 40% 29.75 in 10.0 mi SW 3.5 mph - N/A   Clear
12:36 PM 66.2 °F 39.2 °F 37% 29.75 in 10.0 mi West 8.1 mph - N/A   Clear
12:56 PM 66.2 °F 37.4 °F 35% 29.74 in 10.0 mi WNW 4.6 mph - N/A   Clear
1:16 PM 68.0 °F 37.4 °F 33% 29.74 in 10.0 mi Calm Calm - N/A   Clear
1:36 PM 68.0 °F 37.4 °F 33% 29.73 in 10.0 mi WSW 8.1 mph - N/A   Clear
1:56 PM 68.0 °F 37.4 °F 33% 29.73 in 10.0 mi SW 3.5 mph - N/A   Clear
2:16 PM 68.0 °F 37.4 °F 33% 29.73 in 10.0 mi SSW 3.5 mph - N/A   Clear
2:36 PM 68.0 °F 37.4 °F 33% 29.72 in 10.0 mi SSE 5.8 mph - N/A   Clear
2:56 PM 69.8 °F 37.4 °F 31% 29.72 in 10.0 mi SE 5.8 mph - N/A   Clear
3:16 PM 69.8 °F 33.8 °F 27% 29.72 in 10.0 mi Calm Calm - N/A   Clear
3:36 PM 69.8 °F 33.8 °F 27% 29.71 in 10.0 mi Calm Calm - N/A   Clear
3:56 PM 69.8 °F 32.0 °F 25% 29.71 in 10.0 mi Calm Calm - N/A   Clear
4:16 PM 71.6 °F 32.0 °F 23% 29.71 in 10.0 mi South 6.9 mph - N/A   Clear
4:36 PM 69.8 °F 33.8 °F 27% 29.70 in 10.0 mi SSW 3.5 mph - N/A   Clear
4:56 PM 71.6 °F 32.0 °F 23% 29.70 in 10.0 mi SW 5.8 mph - N/A   Clear
5:16 PM 71.6 °F 32.0 °F 23% 29.70 in 10.0 mi SE 3.5 mph - N/A   Clear
5:36 PM 69.8 °F 30.2 °F 23% 29.70 in 10.0 mi SSE 3.5 mph - N/A   Clear
5:56 PM 71.6 °F 33.8 °F 25% 29.70 in 10.0 mi SSW 3.5 mph - N/A   Clear
6:16 PM 71.6 °F 33.8 °F 25% 29.69 in 10.0 mi SSE 4.6 mph - N/A   Clear
6:36 PM 71.6 °F 33.8 °F 25% 29.69 in 10.0 mi WSW 5.8 mph - N/A   Clear
6:56 PM 71.6 °F 33.8 °F 25% 29.69 in 10.0 mi WNW 3.5 mph - N/A   Clear
7:16 PM 71.6 °F 35.6 °F 27% 29.69 in 10.0 mi WSW 4.6 mph - N/A   Clear
7:36 PM 71.6 °F 35.6 °F 27% 29.69 in 10.0 mi West 4.6 mph - N/A   Clear
7:56 PM 71.6 °F 33.8 °F 25% 29.69 in 10.0 mi West 3.5 mph - N/A   Clear
8:16 PM 71.6 °F 33.8 °F 25% 29.69 in 10.0 mi West 3.5 mph - N/A   Clear
8:36 PM 71.6 °F 33.8 °F 25% 29.69 in 10.0 mi Calm Calm - N/A   Clear
8:56 PM 71.6 °F 33.8 °F 25% 29.69 in 10.0 mi NNE 6.9 mph - N/A   Clear
9:16 PM 66.2 °F 39.2 °F 37% 29.70 in 10.0 mi North 4.6 mph - N/A   Clear
9:36 PM 66.2 °F 42.8 °F 43% 29.70 in 10.0 mi NE 8.1 mph - N/A   Clear
9:56 PM 66.2 °F 41.0 °F 40% 29.71 in 10.0 mi NNE 5.8 mph - N/A   Clear
10:16 PM 66.2 °F 42.8 °F 43% 29.72 in 10.0 mi NNE 9.2 mph 17.3 mph N/A   Mostly Cloudy
10:36 PM 64.4 °F 42.8 °F 45% 29.72 in 10.0 mi North 11.5 mph 17.3 mph N/A   Mostly Cloudy
10:56 PM 62.6 °F 42.8 °F 48% 29.73 in 10.0 mi NNE 9.2 mph - N/A   Clear
11:16 PM 62.6 °F 42.8 °F 48% 29.73 in 10.0 mi North 9.2 mph - N/A   Clear
11:36 PM 62.6 °F 42.8 °F 48% 29.73 in 10.0 mi North 9.2 mph - N/A   Clear
11:56 PM 60.8 °F 42.8 °F 52% 29.74 in 10.0 mi NNE 6.9 mph - N/A   Clear